Tracking 29892 objects as of 21-Nov-2024
HD Live streaming from Space Station
objects crossing your sky now

FENGYUN 1C DEB

Track FENGYUN 1C DEB now!
10-day predictions


NORAD ID: 31339
Int'l Code: 1999-025BQT
Perigee: 810.4 km
Apogee: 920.8 km
Inclination: 98.7 °
Period: 102.1 minutes
Semi major axis: 7236 km
RCS: 0.0112 m2 (small)
Launch date: May 10, 1999
Source: People's Republic of China (PRC)
Launch site: Taiyaun Space Center, China (TSC)

Note: This is SATELLITE DEBRIS
Your satellite tracking list
Your tracking list is empty




NASA's NSSDC Master Catalog

Two Line Element Set (TLE):
1 31339U 99025BQT 24323.77694331  .00002468  00000-0  13787-2 0  9996
2 31339  98.7404 345.2041 0076248 349.9164  10.0473 14.10266149901914
Source of the keplerian elements: AFSPC